Station LAPW1 - 9442396 - La Push, WA Image indicating link to RSS feed of recent meteorological observations for station LAPW1


Conditions at LAPW1 as of
(11:36 am PDT)
1836 GMT on 05/26/2024:
     

Click on the graph icon in the table below to see a time series plot of the last five days of that observation.

5-day plot - Wind Direction Wind Direction (WDIR):SSE ( 160 deg true )
5-day plot - Wind Speed Wind Speed (WSPD): 8.9 kts
5-day plot - Wind Gust Wind Gust (GST): 15.9 kts
5-day plot - Air Temperature Air Temperature (ATMP): 50.2 °F
5-day plot - Water Temperature Water Temperature (WTMP): 51.8 °F
5-day plot - Wind Chill Wind Chill (CHILL): 46.2 °F
5-day plot - Wind Speed at 10 Meters Wind Speed at 10 meters (WSPD10M): 9.7 kts
5-day plot - Wind Speed at 20 Meters Wind Speed at 20 meters (WSPD20M): 11.7 kts
5-day plot -  Wind Speed, Wind Gust and Atmospheric Pressure Combined plot of Wind Speed, Gust, and Air Pressure
NOS Water Level Observation Network Water Level
Previous observations
TIME
(PDT)
5-day plot - Wind Direction
WDIR
 
5-day plot - Wind Speed
WSPD
kts
5-day plot - Wind Gust
GST
kts
5-day plot - Wave Height
WVHT
ft
5-day plot - Dominant Wave Period
DPD
sec
5-day plot - Average Wave Period
APD
sec
5-day plot - Mean Wave Direction
MWD
 
5-day plot - Atmospheric Pressure
PRES
in
5-day plot - Pressure Tendency
PTDY
in
5-day plot - Air Temperature
ATMP
°F
5-day plot - Water Temperature
WTMP
°F
5-day plot - Dew Point
DEWP
°F
5-day plot - Salinity
SAL
psu
5-day plot - Visibility
VIS
nmi
5-day plot - Tide (above MLLW)
TIDE
ft
2024-05-26 11:30 amSSE 9.9 14.0------ 50.2 52.0----
2024-05-26 11:24 amSSE 11.1 17.1------ 50.2 52.0----
2024-05-26 11:18 amSSE 12.0 15.0------ 50.2 52.0----
2024-05-26 11:12 amSSE 12.0 15.9------ 50.2 52.0----
2024-05-26 11:06 amSSE 12.0 15.9------ 50.2 52.0----
2024-05-26 11:00 amSSE 11.1 17.1------ 50.2 52.0----
2024-05-26 10:54 amSSE 9.9 14.0------ 50.0 52.0----
2024-05-26 10:48 amSSE 11.1 18.1------ 50.0 52.0----
2024-05-26 10:42 amSSE 9.9 14.0------ 50.4 52.0----
2024-05-26 10:36 am-------30.07- 50.2 52.0----
2024-05-26 10:30 am-------30.07- 50.0 52.0----
2024-05-26 10:24 am-------30.07- 49.8 52.0----
2024-05-26 10:18 am-------30.07- 50.0 52.0----
2024-05-26 10:12 am-------30.07- 50.2 52.0----
2024-05-26 10:06 am-------30.07- 50.0 51.8----
2024-05-26 10:00 am-------30.07+0.03 50.0 51.8----
2024-05-26 09:54 am-------30.07- 49.8 51.8----
2024-05-26 09:48 am-------30.06- 50.0 51.8----
2024-05-26 09:42 am-------30.06- 50.0 51.8----
2024-05-26 09:36 amSSE 12.0 20.0----30.06-- 51.8----
2024-05-26 09:30 amSSE 12.0 19.0----30.06-- 51.8----
2024-05-26 09:24 amSSE 9.9 20.0----30.06-- 51.8----
2024-05-26 09:18 am SE 11.1 19.0----30.06-- 51.8----
2024-05-26 09:12 amSSE 7.0 15.0----30.06-- 51.8----
2024-05-26 09:06 amSSE 9.9 15.9----30.06-- 51.8----
2024-05-26 09:00 amSSE 11.1 15.9----30.06+0.01- 52.0----
2024-05-26 08:54 am SE 7.0 15.9----30.06-- 52.0----
2024-05-26 08:48 amSSE 8.9 17.1----30.06-- 52.0----
2024-05-26 08:42 amSSE 7.0 13.0----30.06-- 52.0----
2024-05-26 08:36 amSSE 8.0 14.0----30.05- 49.6 52.0----
2024-05-26 08:30 amSSE 8.0 11.1----30.05- 49.6 52.0----
2024-05-26 08:24 amSSE 7.0 12.0----30.05- 49.5 52.0----
2024-05-26 08:18 am SE 7.0 12.0----30.05- 49.3 52.2----
2024-05-26 08:12 am SE 8.0 14.0----30.05- 49.5 52.2----
2024-05-26 08:06 amSSE 9.9 14.0----30.05- 49.3 52.2----
2024-05-26 08:00 amSSE 8.0 15.0----30.05+0.00 49.3 52.2----
2024-05-26 07:54 amSSE 8.0 12.0----30.05- 49.1 52.2----
2024-05-26 07:48 amSSE 8.0 14.0----30.05- 49.1 52.2----
2024-05-26 07:42 amSSE 8.0 11.1----30.05- 49.1 52.2----
2024-05-26 07:36 am SE 7.0 12.0----30.05- 49.1 52.2----
2024-05-26 07:30 amSSE 7.0 12.0----30.05- 49.3 52.2----
2024-05-26 07:24 amSSE 7.0 12.0----30.05- 49.3 52.2----
2024-05-26 07:18 am SE 7.0 12.0----30.04- 49.3 52.0----
2024-05-26 07:12 amSSE 7.0 13.0----30.04- 49.1 52.0----
2024-05-26 07:06 amSSE 5.1 12.0----30.04- 49.1 51.8----
2024-05-26 07:00 am SE 6.0 12.0----30.04-0.01 49.1 51.8----
2024-05-26 06:54 amSSE 7.0 12.0----30.04- 49.1 51.6----
2024-05-26 06:48 am SE 6.0 9.9----30.04- 49.1 51.4----
2024-05-26 06:42 am SE 8.9 14.0----30.04- 49.1 51.1----
2024-05-26 06:36 amSSE 12.0 17.1----30.05-- 50.9----
2024-05-26 06:30 am SE 5.1 11.1----30.04-- 50.4----
2024-05-26 06:24 amSSE 6.0 13.0----30.04-- 49.8----
2024-05-26 06:18 amSSE 8.9 13.0----30.05-- 49.3----
2024-05-26 06:12 amSSE 7.0 12.0----30.05-- 49.1----
2024-05-26 06:06 am SE 6.0 9.9----30.05-- 48.9----
2024-05-26 06:00 am SE 7.0 9.9----30.04-- 48.7----
2024-05-26 05:54 am SE 5.1 11.1----30.04-- 48.7----
2024-05-26 05:48 amESE 5.1 12.0----30.04-- 48.6----
2024-05-26 05:42 amSSE 6.0 9.9----30.05-- 48.6----
2024-05-26 05:36 amSSE 6.0 11.1----30.05-- 48.6----
2024-05-26 05:30 am SE 7.0 9.9----30.05-- 48.6----
2024-05-26 05:24 amESE 7.0 9.9----30.05-- 48.4----
2024-05-26 05:18 amSSE 7.0 9.9----30.05-- 48.4----
2024-05-26 05:12 am SE 5.1 8.9----30.05-- 48.4----
2024-05-26 05:06 am SE 5.1 11.1----30.05-- 48.4----
2024-05-26 05:00 am SE 5.1 9.9----30.05+0.00- 48.4----
2024-05-26 04:54 am SE 6.0 12.0----30.05-- 48.4----
2024-05-26 04:48 amSSE 7.0 12.0----30.05-- 48.2----
2024-05-26 04:42 am SE 6.0 13.0----30.05-- 48.2----
2024-05-26 04:36 am-------30.05-- 48.2----
2024-05-26 04:30 am-------30.06-- 48.2----
2024-05-26 04:24 am-------30.05-- 48.2----
2024-05-26 04:18 am-------30.05-- 48.2----
2024-05-26 04:12 am-------30.05-- 48.2----
2024-05-26 04:06 am-------30.05-- 48.2----
2024-05-26 04:00 am-------30.05+0.00- 48.2----
2024-05-26 03:54 am-------30.05-- 48.2----
2024-05-26 03:48 am-------30.05-- 48.2----
2024-05-26 03:42 am-------30.05-- 48.2----
2024-05-26 03:36 amSSE 6.0 11.1------------
2024-05-26 03:30 am SE 6.0 12.0------------
2024-05-26 03:24 am SE 5.1 8.0------------
2024-05-26 03:18 amSSE 7.0 11.1------------
2024-05-26 03:12 amSSE 7.0 14.0------------
2024-05-26 03:06 am SE 7.0 12.0------------
2024-05-26 03:00 am SE 8.0 13.0------------
2024-05-26 02:54 amESE 6.0 12.0------------
2024-05-26 02:48 am SE 7.0 12.0------------
2024-05-26 02:42 amSSE 7.0 11.1------------
2024-05-26 02:36 am SE 7.0 13.0----30.05- 48.4 48.2----
2024-05-26 02:30 am SE 7.0 13.0----30.05- 48.2 48.2----
2024-05-26 02:24 amSSE 6.0 11.1----30.05- 48.2 48.2----
2024-05-26 02:18 am SE 6.0 9.9----30.05- 48.2 48.2----
2024-05-26 02:12 am SE 5.1 8.0----30.05- 48.2 48.2----
2024-05-26 02:06 am SE 5.1 8.0----30.05- 48.2 48.2----
2024-05-26 02:00 am SE 5.1 11.1----30.05-0.01 48.0 48.2----
2024-05-26 01:54 am SE 6.0 11.1----30.05- 48.0 48.2----
2024-05-26 01:48 am SE 5.1 11.1----30.05- 48.0 48.4----
2024-05-26 01:42 am SE 5.1 8.9----30.05- 48.0 48.4----
2024-05-26 01:36 am SE 7.0 9.9----30.05- 48.0 48.4----
2024-05-26 01:30 am SE 4.1 8.9----30.05- 48.2 48.4----
2024-05-26 01:24 am SE 5.1 9.9----30.05- 48.2 48.4----
2024-05-26 01:18 am-------30.05-- 48.6----
2024-05-26 01:12 am-------30.05-- 48.6----
2024-05-26 01:06 am SE 8.0 12.0----30.05- 48.2 48.6----
2024-05-26 01:00 am SE 6.0 11.1----30.05-0.02 48.2 48.6----
2024-05-26 12:54 am SE 7.0 12.0----30.05- 48.2 48.6----
2024-05-26 12:48 amSSE 6.0 8.9----30.05- 48.2 48.6----
2024-05-26 12:42 amSSE 7.0 11.1----30.05- 48.2 48.6----
2024-05-26 12:36 am SE 5.1 8.9----30.05- 48.2 48.6----
2024-05-26 12:30 amSSE 6.0 12.0----30.05- 48.2 48.6----
2024-05-26 12:24 am SE 8.0 11.1----30.06- 48.4 48.6----
2024-05-26 12:18 am SE 7.0 12.0----30.06- 48.4 48.6----
2024-05-26 12:12 amSSE 7.0 11.1----30.06- 48.6 48.7----
2024-05-26 12:06 amSSE 8.0 14.0----30.06- 48.6 48.7----
2024-05-26 12:00 am SE 8.9 14.0----30.06+0.00 48.6 48.7----
2024-05-25 11:54 pmSSE 7.0 12.0----30.06- 48.6 48.7----
2024-05-25 11:48 pmSSE 7.0 8.9----30.06- 48.4 48.7----
2024-05-25 11:42 pmSSE 7.0 11.1----30.06- 48.6 48.7----
2024-05-25 11:36 pmSSE 6.0 9.9----30.06- 48.6 48.7----
2024-05-25 11:30 pm SE 5.1 8.0----30.06- 48.6 48.7----
2024-05-25 11:24 pmSSE 8.0 11.1----30.06- 48.4 48.7----
2024-05-25 11:18 pmSSE 5.1 9.9----30.06- 48.6 48.7----
2024-05-25 11:12 pmSSE 5.1 8.0----30.06- 48.4 48.7----
2024-05-25 11:06 pm SE 5.1 8.9----30.06- 48.4 48.7----
2024-05-25 11:00 pm SE 5.1 8.9----30.06+0.00 48.4 48.7----
2024-05-25 10:54 pmSSE 7.0 9.9----30.06- 48.4 48.7----
2024-05-25 10:48 pm SE 1.9 6.0----30.06- 48.0 48.7----
2024-05-25 10:42 pm SE 4.1 6.0----30.06- 48.0 48.7----
2024-05-25 10:36 pmSSE 7.0 8.9----30.07- 47.8 48.7----
2024-05-25 10:30 pm SE 5.1 7.0----30.07- 47.8 48.7----
2024-05-25 10:24 pmSSE 5.1 8.0----30.07- 47.8 48.7----
2024-05-25 10:18 pmSSE 5.1 8.9----30.07- 47.8 48.9----
2024-05-25 10:12 pmSSE 5.1 8.0----30.07- 48.0 48.9----
2024-05-25 10:06 pmSSE 5.1 8.0----30.07- 48.0 48.9----
2024-05-25 10:00 pmSSE 4.1 9.9----30.07+0.00 48.0 49.1----
2024-05-25 09:54 pmSSE 4.1 7.0----30.07- 48.0 49.1----
2024-05-25 09:48 pm SE 5.1 8.0----30.07- 48.0 49.3----
2024-05-25 09:42 pm SE 5.1 8.0----30.07- 48.0 49.3----
2024-05-25 09:36 pmSSE 6.0 8.0----30.07- 48.0 49.5----
2024-05-25 09:30 pmSSE 5.1 8.0----30.07- 48.0 49.5----
2024-05-25 09:24 pmSSE 2.9 6.0----30.07- 48.0 49.6----
2024-05-25 09:18 pm SE 2.9 6.0----30.07- 48.0 49.6----
2024-05-25 09:12 pmESE 2.9 5.1----30.07- 48.0 49.8----
2024-05-25 09:06 pmSSE 4.1 6.0----30.07- 47.8 50.0----
2024-05-25 09:00 pmSSE 2.9 6.0----30.07+0.00 48.0 50.0----
2024-05-25 08:54 pmSSE 4.1 7.0----30.07- 48.0 50.0----
2024-05-25 08:48 pmSSE 5.1 6.0----30.07- 48.0 50.0----
2024-05-25 08:42 pmSSE 4.1 5.1----30.07- 48.0 50.0----
2024-05-25 08:36 pm S 4.1 5.1----30.06- 48.2 50.0----
2024-05-25 08:30 pmSSE 2.9 4.1----30.06- 48.2 50.2----
2024-05-25 08:24 pmSSE 4.1 6.0----30.06- 48.2 50.0----
2024-05-25 08:18 pm S 5.1 8.0----30.06- 48.2 50.0----
2024-05-25 08:12 pm SE 4.1 6.0----30.06- 48.2 49.8----
2024-05-25 08:06 pmSSE 4.1 7.0----30.06- 48.2 49.8----
2024-05-25 08:00 pm S 5.1 7.0----30.06+0.00 48.0 49.8----
2024-05-25 07:54 pmSSE 2.9 6.0----30.06- 48.2 49.8----
2024-05-25 07:48 pmSSE 5.1 7.0----30.06- 48.2 49.6----
2024-05-25 07:42 pmSSE 5.1 7.0----30.06- 48.2 49.5----
2024-05-25 07:36 pm S 6.0 8.0----30.07- 48.2 49.5----
2024-05-25 07:30 pmSSE 5.1 6.0----30.07- 48.2 49.5----
2024-05-25 07:24 pmSSE 4.1 6.0----30.07- 48.2 49.3----
2024-05-25 07:18 pmSSE 5.1 7.0----30.06- 48.2 49.3----
2024-05-25 07:12 pm S 4.1 7.0----30.06- 48.2 49.3----
2024-05-25 07:06 pm S 6.0 8.0----30.06- 48.2 49.3----
2024-05-25 07:00 pm S 6.0 8.0----30.06+0.01 48.4 49.3----
2024-05-25 06:54 pm S 6.0 8.0----30.06- 48.4 49.3----
2024-05-25 06:48 pmSSE 6.0 7.0----30.06- 48.6 49.1----
2024-05-25 06:42 pm S 5.1 7.0----30.07- 48.7 49.1----
2024-05-25 06:36 pmSSW 5.1 7.0----30.07- 48.7 48.9----
2024-05-25 06:30 pm S 5.1 6.0----30.06- 48.7 48.9----
2024-05-25 06:24 pmSSW 4.1 6.0----30.06- 48.9 48.7----
2024-05-25 06:18 pmSSW 5.1 7.0----30.06- 49.1 48.7----
2024-05-25 06:12 pm S 5.1 8.0----30.06- 49.3 48.7----
2024-05-25 06:06 pm S 4.1 6.0----30.06- 49.5 48.7----
2024-05-25 06:00 pm SW 5.1 7.0----30.06+0.02 49.3 48.7----
2024-05-25 05:54 pmSSE 5.1 7.0----30.06- 49.6 48.7----
2024-05-25 05:48 pm S 5.1 7.0----30.06- 49.5 48.7----
2024-05-25 05:42 pmSSE 6.0 8.0----30.06- 49.3 48.6----
2024-05-25 05:36 pm S 5.1 7.0----30.06- 49.5 48.6----
2024-05-25 05:30 pm S 5.1 6.0----30.06- 49.5 48.6----
2024-05-25 05:24 pm S 4.1 6.0----30.06- 49.3 48.6----
2024-05-25 05:18 pm S 5.1 6.0----30.06- 49.1 48.6----
2024-05-25 05:12 pm S 5.1 6.0----30.06- 48.9 48.6----
2024-05-25 05:06 pm S 5.1 6.0----30.06- 48.6 48.6----
2024-05-25 05:00 pm S 5.1 6.0----30.06+0.04 48.9 48.6----
2024-05-25 04:54 pm S 5.1 6.0----30.06- 48.6 48.6----
2024-05-25 04:48 pm S 6.0 7.0----30.05- 48.7 48.6----
2024-05-25 04:42 pmSSW 6.0 8.9----30.05- 48.9 48.7----
2024-05-25 04:36 pm S 8.0 8.9----30.05- 48.9 48.7----
2024-05-25 04:30 pm SW 7.0 11.1----30.06- 48.9 48.6----
2024-05-25 04:24 pmWSW 9.9 15.9----30.06- 48.9 48.7----
2024-05-25 04:18 pmWSW 12.0 15.0----30.06- 49.3 48.7----
2024-05-25 04:12 pmWSW 8.9 12.0----30.05- 49.5 48.7----
2024-05-25 04:06 pmWSW 8.0 11.1----30.05- 49.5 48.7----
2024-05-25 04:00 pmWSW 9.9 11.1----30.05+0.05 49.5 48.6----
2024-05-25 03:54 pmWSW 7.0 8.9----30.05- 50.2 48.7----
2024-05-25 03:48 pm W 7.0 8.9----30.05- 50.2 48.7----
2024-05-25 03:42 pmWSW 7.0 8.9----30.05- 50.2 48.7----
2024-05-25 03:36 pmWSW 6.0 8.9----30.05-- 48.7----
2024-05-25 03:30 pmWSW 7.0 9.9----30.04-- 48.7----
2024-05-25 03:24 pmWSW 8.0 9.9----30.04-- 48.7----
2024-05-25 03:18 pmWSW 6.0 8.0----30.04-- 48.7----
2024-05-25 03:12 pmWSW 6.0 7.0----30.04-- 48.7----
2024-05-25 03:06 pmWSW 5.1 7.0----30.04-- 48.7----
2024-05-25 03:00 pmWSW 5.1 7.0----30.04+0.06- 48.7----
2024-05-25 02:54 pmWSW 5.1 6.0----30.04-- 48.7----
2024-05-25 02:48 pm W 5.1 6.0----30.03-- 48.7----
2024-05-25 02:42 pm W 5.1 6.0----30.03-- 48.7----
2024-05-25 02:36 pm W 5.1 6.0----30.03- 50.4 48.9----
2024-05-25 02:30 pmWSW 4.1 6.0----30.03- 50.4 48.7----
2024-05-25 02:24 pmWSW 5.1 6.0----30.03- 50.2 48.7----
2024-05-25 02:18 pm W 5.1 6.0----30.03- 50.2 48.9----
2024-05-25 02:12 pm W 5.1 6.0----30.03- 50.0 48.9----
2024-05-25 02:06 pmWSW 4.1 7.0----30.02- 50.0 48.9----
2024-05-25 02:00 pm W 6.0 11.1----30.02+0.05 49.6 48.9----
2024-05-25 01:54 pmWSW 6.0 8.0----30.02- 50.5 48.9----
2024-05-25 01:48 pmWSW 7.0 9.9----30.02- 50.7 48.7----
2024-05-25 01:42 pmWSW 7.0 8.9----30.01- 50.9 48.9----
2024-05-25 01:36 pmWSW 7.0 9.9----30.01-- 48.9----
2024-05-25 01:30 pmWSW 8.0 9.9----30.01-- 48.9----
2024-05-25 01:24 pmWSW 8.0 9.9----30.01-- 48.7----
2024-05-25 01:18 pmWSW 6.0 8.0----30.01-- 48.7----
2024-05-25 01:12 pmWSW 7.0 8.9----30.01-- 48.7----
2024-05-25 01:06 pmWSW 7.0 8.9----30.01-- 48.7----
2024-05-25 01:00 pmWSW 7.0 8.9----30.00+0.04- 48.7----
2024-05-25 12:54 pm W 6.0 8.0----30.00-- 48.7----
2024-05-25 12:48 pmWSW 5.1 8.0----30.00-- 48.7----
2024-05-25 12:42 pmWSW 6.0 8.0----30.00-- 48.7----
2024-05-25 12:36 pmWSW 6.0 8.9----29.99-- 48.7----
2024-05-25 12:30 pmWSW 5.1 7.0----29.99-- 48.7----
2024-05-25 12:24 pmWSW 6.0 8.0----29.99-- 48.7----
2024-05-25 12:18 pmWSW 5.1 7.0----29.98-- 48.7----
2024-05-25 12:12 pmWSW 5.1 6.0----29.98-- 48.9----
2024-05-25 12:06 pmWSW 2.9 2.9----29.98-- 48.9----
2024-05-25 12:00 pm W 1.9 4.1----29.98+0.04- 49.1----
2024-05-25 11:54 am W 2.9 4.1----29.98-- 49.3----